Total_Precipitation_Accumulation
1.75 2.11 2.57 3.27 3.73 3.90 3.98 4.12 4.12 4.19 4.23 4.20 4.21 4.41 4.59 4.63 4.60 4.72 4.74 4.56 4.50 4.65 4.94 4.96 4.81 4.51 4.20 4.02 4.02 4.01 3.78 3.47 3.32 3.38 3.20 2.82 2.48 2.40 2.31 2.28 2.27 2.11 2.07
1.65 2.10 2.55 3.00 3.30 3.65 3.84 4.04 4.05 4.25 4.52 4.90 5.41 5.69 5.79 5.68 5.51 5.38 5.29 5.15 5.04 5.12 5.23 5.29 4.95 4.59 4.41 4.16 3.92 3.87 3.71 3.45 3.40 3.43 3.46 3.10 2.82 2.37 2.04 2.12 2.14 2.07 2.09
1.65 1.98 2.20 2.58 2.87 3.25 3.59 3.85 4.18 4.61 5.12 5.78 6.56 6.86 6.59 6.18 5.99 5.64 5.55 5.32 5.11 5.08 5.17 4.89 4.65 4.44 4.25 4.06 3.84 3.80 3.76 3.45 3.33 3.44 3.64 3.32 2.97 2.61 2.29 2.07 1.99 2.06 2.10
1.60 1.76 2.02 2.31 2.50 2.88 3.36 3.81 4.37 5.00 5.65 6.26 6.72 6.90 6.79 6.50 6.20 5.76 5.36 4.96 4.65 4.46 4.35 4.22 4.00 3.90 3.77 3.61 3.45 3.47 3.50 3.38 3.13 3.09 2.98 2.93 2.77 2.70 2.48 2.23 2.03 2.01 2.04
1.45 1.60 1.81 2.07 2.37 2.81 3.30 3.78 4.29 5.02 5.52 6.07 6.48 6.69 6.69 6.57 6.17 5.48 4.83 4.40 4.06 3.80 3.53 3.34 3.24 3.23 3.17 2.97 2.81 2.79 2.83 2.81 2.75 2.70 2.55 2.54 2.51 2.46 2.36 2.28 2.19 2.12 1.96
1.62 1.63 1.71 1.88 2.32 2.74 3.26 3.63 3.96 4.68 5.38 5.88 6.24 6.52 6.50 6.26 5.64 4.93 4.35 3.98 3.66 3.40 3.14 2.98 2.83 2.77 2.67 2.50 2.36 2.33 2.36 2.39 2.40 2.45 2.44 2.35 2.29 2.23 2.24 2.12 2.05 2.04 1.92
1.54 1.55 1.76 1.89 2.37 2.77 3.09 3.37 3.62 4.04 4.56 5.04 5.35 5.54 5.58 5.36 4.93 4.49 4.01 3.64 3.39 3.11 2.79 2.46 2.30 2.22 2.22 2.18 2.11 2.07 2.07 2.11 2.12 2.07 2.08 2.11 2.06 2.09 2.18 2.20 2.09 1.97 1.85
1.49 1.49 1.72 1.95 2.11 2.33 2.59 2.90 3.12 3.39 3.67 3.93 4.19 4.17 4.15 4.14 3.94 3.57 3.15 2.86 2.57 2.39 2.23 2.01 1.88 1.86 1.88 1.87 1.86 1.80 1.74 1.78 1.90 1.90 1.99 1.98 1.93 2.01 2.09 2.21 2.31 2.27 2.05
1.44 1.52 1.71 1.85 1.92 2.05 2.24 2.42 2.51 2.71 2.79 2.78 2.79 2.87 2.86 2.90 2.86 2.71 2.45 2.13 1.86 1.71 1.66 1.63 1.60 1.47 1.48 1.55 1.58 1.56 1.55 1.62 1.65 1.69 1.78 1.84 1.85 1.91 1.91 2.01 2.20 2.45 2.36
1.38 1.49 1.63 1.80 1.90 1.91 2.07 2.16 2.10 2.13 2.19 2.22 2.15 2.08 2.15 2.21 2.22 2.16 2.01 1.82 1.61 1.45 1.37 1.35 1.32 1.22 1.19 1.26 1.36 1.38 1.45 1.55 1.52 1.48 1.51 1.56 1.63 1.84 1.94 2.01 2.14 2.36 2.47
1.43 1.55 1.57 1.60 1.62 1.66 1.71 1.76 1.76 1.78 1.78 1.78 1.81 1.79 1.75 1.73 1.75 1.79 1.75 1.61 1.48 1.35 1.27 1.18 1.17 1.17 1.08 1.06 1.15 1.16 1.22 1.37 1.40 1.35 1.37 1.41 1.52 1.68 1.74 1.86 1.99 2.21 2.45
1.58 1.63 1.58 1.47 1.48 1.59 1.63 1.62 1.60 1.56 1.57 1.61 1.66 1.71 1.56 1.48 1.50 1.52 1.51 1.40 1.35 1.29 1.22 1.15 1.12 1.08 1.01 0.99 1.00 0.98 1.02 1.14 1.18 1.23 1.28 1.20 1.27 1.44 1.56 1.71 1.79 1.93 2.11
1.77 1.81 1.74 1.57 1.51 1.53 1.52 1.40 1.36 1.35 1.26 1.26 1.39 1.49 1.37 1.28 1.29 1.29 1.26 1.26 1.22 1.19 1.11 1.06 1.00 0.95 0.96 0.99 0.98 0.94 0.95 0.97 1.01 1.10 1.18 1.21 1.31 1.40 1.50 1.62 1.67 1.79 1.86
1.72 1.80 1.78 1.61 1.58 1.47 1.40 1.22 1.18 1.20 1.17 1.15 1.16 1.23 1.25 1.22 1.18 1.17 1.14 1.08 1.03 1.01 0.95 0.88 0.87 0.87 0.85 0.81 0.84 0.86 0.89 0.94 0.96 1.00 1.04 1.12 1.24 1.37 1.55 1.59 1.67 1.80 1.91
1.74 1.86 1.78 1.57 1.55 1.52 1.45 1.23 1.12 1.12 1.11 1.15 1.16 1.15 1.14 1.07 1.08 1.11 1.08 0.97 0.92 0.85 0.82 0.80 0.78 0.78 0.76 0.69 0.72 0.81 0.85 0.96 1.00 1.01 1.00 0.99 1.06 1.22 1.36 1.42 1.62 1.88 2.03
1.78 1.74 1.64 1.58 1.57 1.55 1.48 1.29 1.14 1.08 1.10 1.18 1.20 1.17 1.16 1.09 1.06 1.08 1.08 1.01 0.98 0.94 0.86 0.84 0.79 0.73 0.62 0.64 0.66 0.71 0.83 0.93 0.98 1.05 1.03 0.91 0.89 0.94 1.00 1.09 1.25 1.53 1.79
2.00 1.90 1.75 1.69 1.72 1.64 1.47 1.37 1.22 1.14 1.14 1.16 1.13 1.18 1.18 1.10 1.03 0.98 1.07 1.07 1.05 0.97 0.91 0.87 0.80 0.73 0.65 0.61 0.57 0.58 0.70 0.88 0.98 1.03 1.04 0.88 0.76 0.90 1.00 1.02 1.04 1.16 1.39
1.99 1.89 1.78 1.77 1.73 1.65 1.55 1.45 1.27 1.14 1.09 1.10 1.04 1.05 1.08 1.10 1.03 1.01 1.04 1.06 1.08 1.06 0.95 0.85 0.83 0.82 0.64 0.59 0.56 0.57 0.68 0.83 0.88 0.90 0.95 1.01 1.00 0.93 0.98 1.04 1.16 1.34 1.46
1.83 1.77 1.71 1.72 1.64 1.55 1.48 1.41 1.27 1.11 0.99 0.98 0.98 0.93 0.90 0.91 0.92 0.91 0.97 1.08 1.11 1.05 0.91 0.83 0.87 0.84 0.68 0.60 0.57 0.58 0.69 0.80 0.81 0.74 0.74 0.80 0.85 0.84 0.91 1.08 1.33 1.53 1.72
1.60 1.54 1.47 1.46 1.48 1.40 1.34 1.33 1.29 1.15 0.97 0.85 0.80 0.79 0.82 0.82 0.84 0.88 0.96 0.97 1.02 1.01 0.85 0.75 0.77 0.73 0.65 0.57 0.52 0.56 0.63 0.74 0.77 0.81 0.78 0.82 0.82 0.83 0.96 1.16 1.49 1.70 1.80
1.50 1.39 1.29 1.27 1.26 1.20 1.11 1.11 1.11 1.01 0.80 0.68 0.65 0.69 0.71 0.72 0.73 0.83 0.88 0.88 0.86 0.89 0.85 0.76 0.71 0.66 0.56 0.49 0.49 0.51 0.53 0.62 0.73 0.80 0.87 0.91 0.92 0.87 0.97 1.18 1.43 1.66 1.72
1.41 1.28 1.22 1.12 1.04 0.98 1.00 1.00 0.90 0.76 0.65 0.61 0.59 0.61 0.62 0.55 0.56 0.75 0.80 0.78 0.83 0.80 0.78 0.82 0.79 0.67 0.55 0.43 0.37 0.38 0.42 0.51 0.74 0.86 0.88 0.91 0.93 0.92 1.04 1.16 1.43 1.70 1.85
1.23 1.11 0.99 0.89 0.82 0.87 0.94 0.90 0.76 0.63 0.57 0.62 0.65 0.59 0.53 0.55 0.54 0.59 0.65 0.69 0.76 0.71 0.66 0.70 0.70 0.61 0.50 0.39 0.27 0.26 0.31 0.41 0.56 0.74 0.89 0.90 0.86 1.00 1.27 1.45 1.60 1.79 1.92
1.05 0.93 0.89 0.82 0.81 0.79 0.73 0.69 0.54 0.49 0.55 0.64 0.67 0.62 0.57 0.56 0.51 0.48 0.45 0.47 0.53 0.56 0.62 0.63 0.61 0.56 0.49 0.35 0.28 0.28 0.31 0.38 0.47 0.61 0.80 0.96 1.04 1.19 1.48 1.72 1.85 1.92 1.87
0.88 0.80 0.85 0.81 0.76 0.67 0.60 0.53 0.47 0.47 0.59 0.62 0.58 0.56 0.52 0.50 0.48 0.41 0.36 0.35 0.37 0.41 0.47 0.51 0.52 0.51 0.43 0.31 0.30 0.30 0.32 0.37 0.45 0.55 0.77 0.97 1.10 1.31 1.54 1.68 1.70 1.69 1.64
0.71 0.70 0.75 0.73 0.65 0.57 0.55 0.47 0.41 0.41 0.52 0.57 0.55 0.49 0.47 0.45 0.41 0.38 0.36 0.31 0.28 0.27 0.28 0.29 0.30 0.31 0.32 0.29 0.27 0.29 0.33 0.39 0.48 0.58 0.84 1.05 1.16 1.34 1.47 1.58 1.55 1.47 1.42